EW3309 Weather Reports


Display with metric or nautical units.
time (UTC)temp
F
wind
direction
speed
MPH
gust
MPH
rain 1hr
in
rain 24hr
in
rain mn
in
humidity
%
barometer
mb
20260903080029 60 318 0.0 0.0 0.00 0.00 0.00 84 1014.1
20260903074510 60 318 0.0 0.0 0.00 0.00 0.00 83 1013.9
20260903073008 61 318 0.0 0.0 0.00 0.00 0.00 83 1013.9
20260903071505 61 318 0.0 0.0 0.00 0.00 0.00 82 1013.9
20260903070002 62 318 0.0 0.0 0.00 0.00 0.00 81 1013.9
20260903064607 62 318 0.0 0.0 0.00 0.00 0.00 81 1014.0
20260903063059 62 318 0.0 0.0 0.00 0.00 0.00 80 1013.9
20260903061600 63 318 0.0 0.0 0.00 0.00 0.00 80 1013.8
20260903060058 64 318 0.0 0.0 0.00 0.00 0.00 80 1013.9
20260903054609 64 318 0.0 0.0 0.00 0.00 0.00 80 1014.0
20260903053106 65 318 0.0 0.0 0.00 0.00 0.00 80 1014.1
20260903051557 65 318 0.0 0.0 0.00 0.00 0.00 81 1014.1
20260903050058 66 318 0.0 0.0 0.00 0.00 0.00 81 1014.2
20260903044559 66 318 0.0 0.0 0.00 0.00 0.00 80 1014.1
20260903043055 67 318 0.0 0.0 0.00 0.00 0.00 79 1014.0
20260903041608 67 318 0.0 0.0 0.00 0.00 0.00 78 1014.0
20260903040105 68 319 0.0 0.0 0.00 0.00 0.00 75 1013.7
20260903034553 68 319 0.0 0.0 0.00 0.00 0.00 74 1013.5
20260903033052 69 318 0.0 0.0 0.00 0.00 0.00 72 1013.4
20260903031551 69 318 0.0 0.0 0.00 0.00 0.00 71 1013.3
20260903030052 70 317 0.0 0.0 0.00 0.00 0.00 70 1013.1
20260903024551 70 311 0.0 0.0 0.00 0.00 0.00 68 1013.0
20260903023050 71 287 0.0 0.0 0.00 0.00 0.00 64 1012.9
20260903021549 73 279 0.0 0.0 0.00 0.00 0.00 60 1012.9
20260903020048 75 275 0.0 0.0 0.00 0.00 0.00 54 1012.9
20260903014550 76 259 0.0 0.0 0.00 0.00 0.00 54 1012.8
20260903013047 77 265 0.0 0.0 0.00 0.00 0.00 51 1012.6
20260903011551 78 263 0.0 0.0 0.00 0.00 0.00 50 1012.7
20260903010047 79 304 0.0 0.0 0.00 0.00 0.00 51 1012.6
20260903004548 80 283 0.0 0.0 0.00 0.00 0.00 49 1012.5
20260903003045 81 329 0.0 0.0 0.00 0.00 0.00 48 1012.5
20260903001559 82 290 0.0 0.0 0.00 0.00 0.00 47 1012.5
20260903000043 82 282 0.0 0.0 0.00 0.00 0.00 45 1012.5
20260902234544 83 257 0.0 0.0 0.00 0.00 0.00 44 1012.6
20260902233041 83 229 0.0 0.0 0.00 0.00 0.00 45 1012.7
20260902231541 83 244 0.0 0.0 0.00 0.00 0.00 47 1012.7
20260902230040 83 257 0.0 0.0 0.00 0.00 0.00 46 1012.8
20260902224545 84 296 0.0 0.0 0.00 0.00 0.00 46 1012.8
20260902223036 84 277 0.0 0.0 0.00 0.00 0.00 46 1012.9
20260902221538 85 319 0.0 0.0 0.00 0.00 0.00 44 1013.1
20260902220041 85 255 0.0 0.0 0.00 0.00 0.00 43 1013.1
20260902214531 84 242 0.0 0.0 0.00 0.00 0.00 45 1013.1
20260902213029 84 248 0.0 0.0 0.00 0.00 0.00 46 1013.2
20260902211527 84 291 0.0 0.0 0.00 0.00 0.00 46 1013.2
20260902210025 87 277 0.0 0.0 0.00 0.00 0.00 44 1013.2
20260902204523 87 269 0.0 0.0 0.00 0.00 0.00 40 1013.2
20260902203022 89 219 0.0 0.0 0.00 0.00 0.00 38 1013.2
20260902201521 89 250 0.0 0.0 0.00 0.00 0.00 34 1013.4
20260902200019 89 200 0.0 0.0 0.00 0.00 0.00 37 1013.5
20260902194516 88 221 0.0 0.0 0.00 0.00 0.00 36 1013.6
20260902193014 88 268 0.0 0.0 0.00 0.00 0.00 34 1013.8
20260902191511 87 199 0.0 0.0 0.00 0.00 0.00 33 1014.1
20260902190008 86 212 0.0 0.0 0.00 0.00 0.00 39 1014.2
20260902184502 84 213 0.0 0.0 0.00 0.00 0.00 43 1014.4
20260902183058 83 231 0.0 0.0 0.00 0.00 0.00 48 1014.5
20260902181608 81 252 0.0 0.0 0.00 0.00 0.00 52 1014.7
20260902180049 78 225 0.0 0.0 0.00 0.00 0.00 57 1014.7
20260902174545 75 215 0.0 0.0 0.00 0.00 0.00 64 1014.9
20260902173042 72 171 0.0 0.0 0.00 0.00 0.00 68 1014.8
20260902171558 70 170 0.0 0.0 0.00 0.00 0.00 72 1014.8
20260902170033 69 202 0.0 0.0 0.00 0.00 0.00 79 1014.8
20260902164530 67 242 0.0 0.0 0.00 0.00 0.00 85 1014.8
20260902163025 66 242 0.0 0.0 0.00 0.00 0.00 87 1014.9
20260902161529 65 274 0.0 0.0 0.00 0.00 0.00 88 1014.9
20260902160019 65 333 0.0 0.0 0.00 0.00 0.00 89 1015.1
20260902154514 65 333 0.0 0.0 0.00 0.00 0.00 89 1015.0
20260902153011 65 333 0.0 0.0 0.00 0.00 0.00 90 1015.0
20260902151509 64 360 0.0 0.0 0.00 0.00 0.00 90 1015.0
20260902150007 64 355 0.0 0.0 0.00 0.00 0.00 91 1015.1
20260902144501 64 360 0.0 0.0 0.00 0.00 0.00 91 1015.0
20260902143103 63 9 0.0 0.0 0.00 0.00 0.00 90 1015.0
20260902141657 63 9 0.0 0.0 0.00 0.00 0.00 90 1014.9
20260902140057 63 9 0.0 0.0 0.00 0.00 0.00 90 1014.8
20260902134607 63 5 0.0 0.0 0.00 0.00 0.00 90 1014.6
20260902133049 63 5 0.0 0.0 0.00 0.00 0.00 89 1014.4
20260902131550 63 355 0.0 0.0 0.00 0.00 0.00 89 1014.2
20260902130048 64 126 0.0 0.0 0.00 0.00 0.00 89 1014.0
20260902124547 64 127 0.0 0.0 0.00 0.00 0.00 90 1013.9
20260902123049 64 127 0.0 0.0 0.00 0.00 0.00 90 1014.0
20260902121546 64 127 0.0 0.0 0.00 0.00 0.00 90 1014.1
20260902120052 64 127 0.0 0.0 0.00 0.00 0.00 90 1014.0
20260902114547 64 128 0.0 0.0 0.00 0.00 0.00 90 1014.1
20260902113043 64 102 0.0 0.0 0.00 0.00 0.00 91 1014.0
20260902111542 64 103 0.0 0.0 0.00 0.00 0.00 91 1014.0
20260902104541 63 319 0.0 0.0 0.00 0.00 0.00 90 1014.2
20260902103037 62 320 0.0 0.0 0.00 0.00 0.00 90 1014.3
20260902101536 63 320 0.0 0.0 0.00 0.00 0.00 89 1014.5
20260902100036 63 320 0.0 0.0 0.00 0.00 0.00 90 1014.5
20260902094537 62 320 0.0 0.0 0.00 0.00 0.00 89 1014.5
20260902093038 62 320 0.0 0.0 0.00 0.00 0.00 88 1014.5
20260902091534 63 320 0.0 0.0 0.00 0.00 0.00 88 1014.6
20260902090033 63 320 0.0 0.0 0.00 0.00 0.00 88 1014.7
20260902084532 62 320 0.0 0.0 0.00 0.00 0.00 87 1014.8
20260902083029 62 319 0.0 0.0 0.00 0.00 0.00 86 1014.9
20260902081529 63 319 0.0 0.0 0.00 0.00 0.00 86 1014.8